STARLINK-1675 (46575 NORAD) Tracking and Keplerian Element Data

This shows tracking and keplerian element data for the satellite.

Feedback or suggestion? Click here.




ElementValue
Catalog46575
NameSTARLINK-1675
Epoch Orbit178
Epoch Day330.91667824
Epoch Year2020
RAAN194.6095
Inclination53.0008
Eccentricity0.0001704
Argument of Perigee27.6407
Mean Anonmoly80.2105
Mean Motion15.62778993
Decay Rate0.00017682
L11 46575U 20070AV 20330.91667824 .00017682 00000-0 19832-3 0 9997
L22 46575 53.0008 194.6095 0001704 27.6407 80.2105 15.62778993 1786

Live tracking and technical data element details for STARLINK-1675 (NORAD 46575). STARLINK-1675 can be tracked NOW for your location showing map with azimuth and elevation plus other details from your city location.

Track the satellite on the map from your city or location and see movement details for azimuth, elevation, latitude, longitude, range, height, and movement on the map or in text.







IsCatalogInMostPopularTable: catalog: 46575, numindb: 12
Update: records affected: 1



GetName: 46575 STARLINK-1675

Hit Count: updated at: Thu, 26 Nov 2020 23:37:31 GMT